#timestamp,LO_Frequency,Hit,StdDev 
1648897215.6,286046998.5,N
1648897235.4,286046998.8,N
1648897255.2,286047001.0,N
1648897275.1,286047000.4,N
1648897276.0,286047000.4,N
1648897295.8,286047001.0,N
1648897315.7,286047002.7,N
1648897335.5,286047003.6,Y
1648897355.3,286047002.7,P
1648897375.2,286047002.7,P
1648897395.0,286046999.8,N
1648897395.9,286046999.8,N
1648897415.7,286047000.4,N
1648897435.6,286047000.9,N
1648897455.4,286046999.1,N
1648897475.3,286046998.6,N
1648897495.1,286046999.3,N
1648897496.0,286046999.3,N
1648897515.8,286046999.7,N
1648897535.7,286046999.8,N
1648897555.5,286047000.7,N
1648897575.3,286047002.2,N
1648897595.2,286047001.4,N
1648897615.0,286047001.8,N
1648897615.9,286047001.8,N
1648897635.8,286047002.6,N
1648897655.6,286046999.9,N
1648897675.4,286047002.7,N
1648897695.3,286047001.0,N
1648897715.1,286047002.1,N
1648897735.8,286047000.0,N
1648897755.7,286047000.9,N
1648897775.5,286047002.0,N
1648897795.4,286047000.5,N
1648897815.2,286047002.5,N
1648897835.0,286047002.3,N
1648897835.9,286047002.3,N
1648897855.8,286046999.7,N
1648897875.6,286046999.8,N
1648897895.4,286047001.4,N
1648897915.3,286047004.4,Y
1648897935.1,286047002.6,P
1648897955.9,286046999.9,N
1648897975.7,286047000.1,N
1648897995.5,286047000.9,N
1648898015.4,286047002.1,N
1648898035.2,286047000.2,N
1648898055.0,286047002.1,N
1648898056.0,286047002.1,N
1648898075.8,286047002.0,N
1648898095.6,286047002.6,N
1648898115.5,286047002.1,N
1648898135.3,286047005.2,Y
1648898155.1,286047004.0,P
1648898175.9,286047002.8,N
1648898195.7,286047003.2,P
1648898215.6,286047006.7,Y
1648898235.4,286047003.9,P
1648898255.2,286047002.4,P
1648898275.1,286047000.2,N
1648898276.0,286047000.2,N
1648898295.8,286047002.0,N
1648898315.6,286047000.2,N
1648898335.5,286047000.9,N
1648898355.3,286046998.7,N
1648898375.2,286046999.5,N
1648898395.9,286046998.7,N
1648898415.7,286046998.5,N
1648898435.6,286046998.3,N
1648898455.4,286047000.6,N
1648898475.2,286046998.6,N
1648898495.1,286047000.1,N
1648898496.0,286047000.1,N
1648898515.8,286047001.4,N
1648898535.7,286047000.5,N
1648898555.5,286046998.6,N
1648898575.3,286047000.9,N
1648898595.2,286046999.7,N
1648898615.0,286047000.8,N
1648898615.9,286047000.8,N
1648898635.7,286047001.2,N
1648898655.6,286046999.1,N
1648898675.4,286046997.7,N
1648898695.3,286046996.6,N
1648898715.1,286046997.8,N
1648898716.0,286046997.8,N
1648898735.8,286047000.2,N
1648898755.7,286047001.0,N
1648898775.5,286046998.9,N
1648898795.4,286046999.4,N
1648898815.2,286046997.2,N
1648898835.0,286046997.6,N
1648898835.9,286046997.6,N
1648898855.8,286046995.1,Y
1648898875.6,286047001.2,P
1648898895.5,286047000.4,N
1648898915.3,286047001.1,N
1648898935.1,286047011.9,Y
1648898955.9,286047001.4,P
1648898975.7,286047004.4,P
1648898995.5,286047000.0,N
1648899015.4,286046999.6,N
1648899035.2,286047000.1,N
1648899055.1,286047003.7,N
1648899056.0,286047003.7,N
1648899075.8,286047002.6,N
1648899095.6,286046999.9,N
1648899115.5,286047000.6,N
1648899135.3,286046998.1,N
1648899155.1,286047001.2,N
1648899175.9,286046998.6,N
1648899195.7,286047004.8,N
1648899215.6,286047006.0,N
1648899235.4,286047004.4,N
1648899255.2,286047002.2,N
1648899275.1,286047000.6,N
1648899276.0,286047000.6,N
1648899295.8,286047001.8,N
1648899315.6,286047000.4,N
1648899335.5,286047002.3,N
1648899355.3,286047000.3,N
1648899375.2,286046999.1,N
1648899395.9,286046997.0,N
1648899415.7,286046998.4,N
1648899435.6,286047001.2,N
1648899455.4,286046998.9,N
1648899475.2,286047000.4,N
1648899495.1,286047001.0,N
1648899496.0,286047001.0,N
1648899515.8,286046999.2,N
1648899535.7,286046997.1,N
1648899555.5,286046997.5,N
1648899575.3,286046995.2,N
1648899595.2,286046995.1,N
1648899615.0,286046998.0,N
1648899615.9,286046998.0,N
1648899635.7,286046995.2,N
1648899655.6,286046996.8,N
1648899675.4,286046999.6,N
1648899695.3,286046996.9,N
1648899715.1,286046996.9,N
1648899716.0,286046996.9,N
1648899735.8,286047001.2,N
1648899755.7,286046998.1,N
1648899775.5,286046998.2,N
1648899795.3,286047000.2,N
1648899815.2,286047000.7,N
1648899835.0,286046996.6,N
1648899835.9,286046996.6,N
1648899855.8,286046996.5,N
1648899875.6,286046997.4,N
1648899895.4,286046997.0,N
1648899915.3,286046996.5,N
1648899935.1,286046997.6,N
1648899955.8,286046997.8,N
1648899975.7,286046995.4,N
1648899995.5,286046996.8,N
1648900015.4,286046999.3,N
1648900035.2,286047005.6,Y
1648900055.0,286047006.7,P
1648900055.9,286047006.7,N
1648900075.8,286047005.1,N
1648900095.6,286047007.7,N
1648900115.5,286047007.0,N
1648900135.3,286047007.5,N
1648900155.1,286047005.5,N
1648900175.9,286047005.9,N
1648900195.7,286047006.1,N
1648900215.5,286047005.3,N
1648900235.4,286047004.2,N
1648900255.2,286047004.4,N
1648900275.1,286047001.8,N
1648900276.0,286047001.8,N
1648900295.8,286047001.0,N
1648900315.6,286047000.6,N
1648900335.5,286046999.1,N
1648900355.3,286047000.7,N
1648900375.1,286046998.1,N
1648900395.9,286046998.6,N
1648900415.7,286046999.0,N
1648900435.6,286046998.5,N
1648900455.4,286047001.8,N
1648900475.2,286047000.7,N
1648900495.1,286047004.4,N
1648900496.0,286047004.4,N
1648900515.8,286046998.9,N
1648900535.6,286046999.6,N
1648900555.5,286047001.2,N
1648900575.3,286047011.9,Y
1648900595.2,286046995.8,P
1648900615.9,286046994.2,N
1648900635.7,286046993.4,N
1648900655.6,286046994.0,N
1648900675.4,286046996.4,N
1648900695.2,286046995.9,N
1648900715.1,286046995.9,N
1648900716.0,286046995.9,N
1648900735.8,286046996.4,N
1648900755.7,286046994.2,N
1648900775.5,286046992.3,Y
1648900795.3,286046995.2,P
